Regional Weather Roundup
Issued by NWS

Home | Current Version | Previous Version | Text Only | Print | Product List | Glossary Off
Versions: 1 2 3 4 5 6 7 8 9 10 11 12 13 14 15 16 17 18 19 20 21 22 23 24 25 26 27 28 29 30 31 32 33 34 35 36 37 38 39 40 41 42 43 44 45 46 47 48 49 50

258
ASUS43 KOAX 281410
RWRNE

WEATHER ROUNDUP FOR NEBRASKA
NATIONAL WEATHER SERVICE OMAHA NE
900 AM CDT THU JUL 28 2016

NOTES: SATELLITE DATA IS BEING USED TO AUGMENT CLOUD COVER ABOVE
       12000 FEET.
       "FAIR" INDICATES FEW OR NO CLOUDS BELOW 12,000 FEET WITH NO
       SIGNIFICANT WEATHER AND/OR OBSTRUCTIONS TO VISIBILITY.

  * THESE STATIONS DO NOT REPORT WEATHER SUCH AS RAIN...SNOW OR FOG.

NEZ001>004-019>022-054>056-281500-
NEBRASKA PANHANDLE

CITY           SKY/WX    TMP DP  RH WIND       PRES   REMARKS
SCOTTSBLUFF    SUNNY     66  56  70 SE13G20   30.17S
ALLIANCE       CLOUDY    62  59  90 S8        30.14F THUNDER
CHADRON        PTSUNNY   67  56  67 S10       30.09F
KIMBALL        PTSUNNY   62  60  93 E8        30.22F
SIDNEY         CLOUDY    63  58  83 NE15      30.20F
$$

NEZ057>060-069>072-079>082-281500-
SOUTHWEST NEBRASKA

CITY           SKY/WX    TMP DP  RH WIND       PRES   REMARKS
NORTH PLATTE   CLOUDY    66  60  81 CALM      30.14R
IMPERIAL       TSTM      67  65  93 N15       30.18R FOG
LEXINGTON      SUNNY     68  61  80 CALM      30.12R
MCCOOK         SUNNY     70  62  76 E13       30.10F
OGALLALA       CLOUDY    65  62  90 NE5       30.20S
$$

NEZ005>010-023>029-035>040-094-281500-
NORTH CENTRAL NEBRASKA

CITY           SKY/WX    TMP DP  RH WIND       PRES   REMARKS
VALENTINE      PTSUNNY   61  59  93 MISG      30.12F
AINSWORTH      CLOUDY    62  61  98 CALM      30.14F
BROKEN BOW     MOSUNNY   66  63  90 NE7       30.13R
O`NEILL        MOSUNNY   69  64  85 NE6       30.13S
ORD            SUNNY     68  63  84 N3        30.10F
THEDFORD       CLOUDY    63  60  92 W6        30.20R
$$

NEZ041-046>049-061>064-073>077-083>087-281500-
SOUTH CENTRAL NEBRASKA

CITY           SKY/WX    TMP DP  RH WIND       PRES   REMARKS
GRAND ISLAND   MOSUNNY   70  63  78 NE7       30.10R
AURORA         MOSUNNY   69  67  93 NE7       30.09R
HASTINGS       MOSUNNY   67  63  87 NE7       30.10S
HEBRON         SUNNY     71  64  78 N3        30.06S
HOLDREGE       MOSUNNY   66  62  86 E3        30.11S
KEARNEY *      MOSUNNY   68  10  10 NE6       30.11S
YORK           PTSUNNY   72  66  83 NE6       30.08R
$$

NEZ011>018-030>034-042>045-281500-
NORTHEAST NEBRASKA

CITY           SKY/WX    TMP DP  RH WIND       PRES   REMARKS
NORFOLK        SUNNY     70  60  70 NE7       30.09S
ALBION         SUNNY     70  63  78 NE5       30.10S
BLAIR          SUNNY     72  66  81 N6        30.05R
FREMONT        SUNNY     72  65  78 N6        30.06R
TEKAMAH        SUNNY     73  66  78 N9        30.05S
WAYNE          MOSUNNY   71  62  74 N6        30.09F
$$

NEZ050>053-065>068-078-088>093-281500-
SOUTHEAST NEBRASKA

CITY           SKY/WX    TMP DP  RH WIND       PRES   REMARKS
LINCOLN        MOSUNNY   76  67  73 NE8       30.04F
OMAHA EPPLEY   MOSUNNY   74  67  78 N8        30.03S
BEATRICE       SUNNY     73  66  79 NE3       30.04S
FALLS CITY     MOSUNNY   75  71  87 N7        30.00S
NEBRASKA CITY  MOSUNNY   74  70  87 NE8       30.02S
PLATTSMOUTH    SUNNY     74  67  78 NE6       30.03S
$$

NEZ044-045-051>053-067-281500-
OMAHA AREA

CITY           SKY/WX    TMP DP  RH WIND       PRES   REMARKS
OMAHA EPPLEY   MOSUNNY   74  67  78 N8        30.03S
BLAIR          SUNNY     72  66  81 N6        30.05R
FREMONT        SUNNY     72  65  78 N6        30.06R
MILLARD        SUNNY     75  66  72 N5        30.03S
OFFUTT AFB     SUNNY     75  66  74 NE9       30.02S
PLATTSMOUTH    SUNNY     74  67  78 NE6       30.03S
WAHOO          FAIR      74  67  81 N7        30.05R
$$




USA.gov is the U.S. government's official web portal to all federal, state and local government web resources and services.